Hourly Data Report for September 10, 2017

All times are specified in Local Standard Time (LST). Add 1 hour to adjust for Daylight Saving Time where and when it is observed.

KUGAARUK CLIMATE
NUNAVUT

68°32'15.060" N
89°47'47.020" W
15.80 m
2303094
71407
NBB

Download Data

Hourly Data (September 2017)
Hourly Data Report for September 10, 2017
Temp Definition
°C
Dew Point Temp Definition
°C
Rel Hum Definition
%
Wind Dir Definition
10's deg

Wind Spd Definition
km/h
Visibility Definition
km
Stn Press Definition
kPa
Hmdx Definition


Wind Chill Definition


Weather Definition


TIME
00:00 -0.6 -4.1 77 28 29   101.36   -7 LegendNANA
01:00 -0.6 -4.5 75 28 26   101.43   -7 LegendNANA
02:00 -0.5 -4.2 76 28 25   101.48   -7 LegendNANA
03:00 -1.0 -3.9 81 27 27   101.50   -7 LegendNANA
04:00 -1.1 -4.1 80 25 25   101.51   -7 LegendNANA
05:00 -1.8 -4.4 82 23 29   101.52   -9 LegendNANA
06:00 -1.2 -3.2 86 24 38   101.49   -9 LegendNANA
07:00 -0.4 -3.1 82 24 35   101.49   -7 LegendNANA
08:00 -0.4 -3.2 81 24 37   101.46   -8 LegendNANA
09:00 -0.2 -3.8 77 26 40   101.48   -8 LegendNANA
10:00 0.0 -4.0 75 26 34   101.43   -7 LegendNANA
11:00 0.6 -2.6 79 24 33   101.40     LegendNANA
12:00 1.0 -2.7 76 24 39   101.35     LegendNANA
13:00 1.8 -2.5 73 24 33   101.34     LegendNANA
14:00 2.2 -1.9 74 25 36   101.27     LegendNANA
15:00 2.3 -1.8 74 24 37   101.20     LegendNANA
16:00 2.4 -2.0 73 23 34   101.17     LegendNANA
17:00 1.8 -2.0 76 22 29   101.15     LegendNANA
18:00 2.1 -2.2 73 21 31   101.10     LegendNANA
19:00 2.1 -1.9 75 21 31   101.09     LegendNANA
20:00 1.7 -2.0 76 21 29   101.04     LegendNANA
21:00 2.1 -1.7 76 21 27   100.98     LegendNANA
22:00 2.0 -1.6 77 21 26   100.96     LegendNANA
23:00 2.1 -1.5 77 22 28   100.88     LegendNANA

Notes on Data Quality.

Legend

  • E = Estimated
  • M = Missing
  • NA = Not Available
  • ‡ = Partner data that is not subject to review by the National Climate Archives
Date modified: